Tracking 29892 objects as of 21-Nov-2024
HD Live streaming from Space Station
objects crossing your sky now

ONEWEB-0379

Track ONEWEB-0379 now!
10-day predictions
ONEWEB-0379 is classified as:


NORAD ID: 49305
Int'l Code: 2021-090AC
Perigee: 1,211.5 km
Apogee: 1,214.3 km
Inclination: 87.9 °
Period: 109.5 minutes
Semi major axis: 7583 km
RCS: Unknown
Launch date: October 14, 2021
Source: United Kingdom (UK)
Launch site: VOSTOCHNY COSMODROME (VOSTO)
Your satellite tracking list
Your tracking list is empty




NASA's NSSDC Master Catalog

Two Line Element Set (TLE):
1 49305U 21090AC  24325.18588771 -.00000057  00000-0 -18919-3 0  9999
2 49305  87.9030  43.8471 0001829 100.8477 259.2859 13.14503285152150
Source of the keplerian elements: AFSPC